TimeEDT,TemperatureF,Dew PointF,Humidity,Sea Level PressureIn,VisibilityMPH,Wind Direction,Wind SpeedMPH,Gust SpeedMPH,PrecipitationIn,Events,Conditions,WindDirDegrees,DateUTC
12:53 AM,81.0,77.0,88,29.80,10.0,South,16.1,-,N/A,,Clear,190,2012-10-02 04:53:00
1:53 AM,80.1,75.9,87,29.80,10.0,South,15.0,-,N/A,,Partly Cloudy,190,2012-10-02 05:53:00
2:26 AM,80.6,77.0,89,29.79,10.0,South,11.5,-,0.00,,Mostly Cloudy,190,2012-10-02 06:26:00
2:43 AM,80.6,75.2,84,29.79,10.0,South,16.1,-,0.00,,Scattered Clouds,180,2012-10-02 06:43:00
2:53 AM,80.1,75.9,87,29.79,10.0,South,13.8,-,0.00,,Partly Cloudy,190,2012-10-02 06:53:00
3:53 AM,80.1,77.0,90,29.79,10.0,South,13.8,-,N/A,,Mostly Cloudy,180,2012-10-02 07:53:00
4:53 AM,79.0,77.0,94,29.80,10.0,South,12.7,-,N/A,,Mostly Cloudy,190,2012-10-02 08:53:00
5:53 AM,82.0,77.0,85,29.81,10.0,SW,6.9,-,0.00,,Mostly Cloudy,220,2012-10-02 09:53:00
6:04 AM,82.4,77.0,84,29.81,10.0,SW,11.5,17.3,N/A,,Mostly Cloudy,220,2012-10-02 10:04:00
6:53 AM,82.0,75.9,82,29.82,10.0,SW,8.1,-,N/A,,Partly Cloudy,230,2012-10-02 10:53:00
7:53 AM,82.0,75.9,82,29.85,10.0,SW,11.5,-,N/A,,Partly Cloudy,220,2012-10-02 11:53:00
8:53 AM,82.9,75.9,79,29.87,10.0,SW,10.4,18.4,N/A,,Partly Cloudy,230,2012-10-02 12:53:00
9:16 AM,84.2,77.0,79,29.88,9.0,WSW,16.1,24.2,0.00,Rain,Light Rain,250,2012-10-02 13:16:00
9:31 AM,82.4,77.0,84,29.88,10.0,SW,12.7,-,0.00,,Scattered Clouds,230,2012-10-02 13:31:00
9:53 AM,80.1,75.0,85,29.89,10.0,West,13.8,39.1,0.00,,Scattered Clouds,260,2012-10-02 13:53:00
10:53 AM,82.9,73.0,72,29.91,10.0,WSW,13.8,20.7,N/A,,Scattered Clouds,240,2012-10-02 14:53:00
11:53 AM,82.0,75.9,82,29.92,10.0,West,8.1,-,N/A,,Scattered Clouds,260,2012-10-02 15:53:00
12:53 PM,82.9,75.0,77,29.91,10.0,WSW,6.9,-,N/A,,Scattered Clouds,240,2012-10-02 16:53:00
1:53 PM,82.9,75.9,79,29.91,10.0,WSW,6.9,-,0.00,,Scattered Clouds,240,2012-10-02 17:53:00
2:53 PM,82.9,75.9,79,29.88,10.0,WSW,8.1,-,0.00,,Scattered Clouds,240,2012-10-02 18:53:00
3:28 PM,82.4,75.2,79,29.89,10.0,WSW,6.9,-,N/A,,Mostly Cloudy,240,2012-10-02 19:28:00
3:50 PM,82.4,73.4,74,29.89,10.0,WSW,8.1,-,N/A,,Scattered Clouds,240,2012-10-02 19:50:00
3:53 PM,84.0,73.9,72,29.89,10.0,West,10.4,-,N/A,,Mostly Cloudy,260,2012-10-02 19:53:00
4:53 PM,84.0,73.9,72,29.89,10.0,WNW,3.5,-,N/A,,Scattered Clouds,300,2012-10-02 20:53:00
5:53 PM,82.9,73.9,74,29.89,10.0,West,4.6,-,N/A,,Clear,280,2012-10-02 21:53:00
6:53 PM,82.9,73.9,74,29.92,10.0,West,4.6,-,N/A,,Partly Cloudy,280,2012-10-02 22:53:00
8:53 PM,82.0,73.9,76,29.96,10.0,North,3.5,-,N/A,,Clear,350,2012-10-03 00:53:00
9:53 PM,81.0,73.0,77,29.99,10.0,Calm,Calm,-,N/A,,Clear,0,2012-10-03 01:53:00
10:12 PM,80.6,75.2,84,30.00,10.0,SE,15.0,20.7,N/A,,Mostly Cloudy,140,2012-10-03 02:12:00
10:19 PM,80.6,75.2,84,30.00,10.0,SE,12.7,-,N/A,,Mostly Cloudy,140,2012-10-03 02:19:00
10:53 PM,79.0,75.9,90,30.01,10.0,SE,11.5,-,0.00,,Mostly Cloudy,140,2012-10-03 02:53:00
11:00 PM,78.8,75.2,89,30.01,10.0,SE,11.5,-,N/A,,Mostly Cloudy,140,2012-10-03 03:00:00
11:25 PM,78.8,75.2,89,30.01,10.0,SSE,15.0,-,N/A,,Mostly Cloudy,150,2012-10-03 03:25:00
11:53 PM,78.1,75.0,90,30.01,10.0,South,15.0,-,N/A,,Mostly Cloudy,170,2012-10-03 03:53:00